Change the Weather History Date:

Saturday, December 1, 2012

  Actual Average Record
Temperature  
Mean Temperature 45 °F 37 °F  
Max Temperature 60 °F 46 °F 69 °F (1998)
Min Temperature 29 °F 29 °F 5 °F (1976)
Degree Days  
Heating Degree Days 20 28  
Month to date heating degree days 20 28  
Since 1 July heating degree days 1293 1186  
Cooling Degree Days 0 0  
Month to date cooling degree days 0 0  
Year to date cooling degree days 981 697  
Moisture  
Dew Point 35 °F    
Average Humidity 66    
Maximum Humidity 85    
Minimum Humidity 47    
Precipitation  
Precipitation 0.00 in 0.09 in 0.61 in (1974)
Month to date precipitation 0.00 0.09  
Year to date precipitation 28.32 36.32  
Sea Level Pressure  
Sea Level Pressure 30.26 in    
Wind  
Wind Speed 5 mph (SE)    
Max Wind Speed 13 mph    
Max Gust Speed 20 mph    
Visibility 10 miles    
Events      
T = Trace of Precipitation, MM = Missing Value Source: NWS Daily Summary

Daily Weather History Graph

Daily Weather History Graph

Search for Another Location

Airport or City:

Trip Planner

Search our weather history database for the weather conditions in past years. The results will help you decide how hot, cold, wet, or windy it might be!

Date:

Astronomy

Dec. 01, 2012 Rise Set
Actual Time 7:30 AM EST 4:59 PM EST
Civil Twilight 6:59 AM EST 5:29 PM EST
Nautical Twilight 6:25 AM EST 6:03 PM EST
Astronomical Twilight 5:53 AM EST 6:36 PM EST
Moon 7:48 PM EST (12/1) 9:42 AM EST (12/1)
Length of Visible Light 10h 29m
Length of Day
9h 29m
Waning Gibbous, 92% of the Moon is Illuminated
Dec 1
Waning Gibbous
Dec 6
Last Quarter
Dec 13
New
Dec 20
First Quarter
Dec 28
Full

Hourly Weather History & Observations

Time (EST) Temp. Windchill Dew Point Humidity Pressure Visibility Wind Dir Wind Speed Gust Speed Precip Events Conditions
12:53 AM 33.1 °F - 28.0 °F 82% 30.25 in 10.0 mi Calm Calm - N/A   Clear
1:53 AM 33.1 °F - 28.0 °F 82% 30.26 in 10.0 mi Calm Calm - N/A   Clear
2:53 AM 32.0 °F - 28.0 °F 85% 30.27 in 9.0 mi Calm Calm - N/A   Clear
3:53 AM 32.0 °F 27.5 °F 28.0 °F 85% 30.25 in 10.0 mi ESE 4.6 mph - N/A   Clear
5:53 AM 32.0 °F 28.7 °F 28.9 °F 88% 30.30 in 8.0 mi East 3.5 mph - N/A   Clear
7:53 AM 35.1 °F 32.2 °F 30.9 °F 85% 30.33 in 8.0 mi ESE 3.5 mph - N/A   Overcast
8:53 AM 37.9 °F 35.5 °F 33.1 °F 83% 30.33 in 9.0 mi SE 3.5 mph - N/A   Overcast
10:53 AM 48.0 °F - 36.0 °F 63% 30.33 in 10.0 mi ESE 4.6 mph - N/A   Overcast
11:53 AM 50.0 °F - 37.0 °F 61% 30.30 in 10.0 mi SE 4.6 mph - N/A   Overcast
12:53 PM 55.0 °F - 37.9 °F 53% 30.27 in 10.0 mi Variable 6.9 mph - N/A   Partly Cloudy
2:53 PM 59.0 °F - 39.9 °F 49% 30.25 in 10.0 mi SSW 9.2 mph 16.1 mph N/A   Clear
3:53 PM 59.0 °F - 41.0 °F 51% 30.24 in 10.0 mi SSW 6.9 mph - N/A   Partly Cloudy
5:53 PM 54.0 °F - 39.9 °F 59% 30.25 in 10.0 mi SSE 3.5 mph - N/A   Clear
6:53 PM 52.0 °F - 39.9 °F 63% 30.25 in 10.0 mi SSE 5.8 mph - N/A   Clear
7:53 PM 51.1 °F - 39.9 °F 66% 30.25 in 10.0 mi SE 5.8 mph - N/A   Clear
8:53 PM 48.9 °F - 39.0 °F 69% 30.24 in 10.0 mi SE 5.8 mph - N/A   Clear
9:53 PM 48.0 °F - 39.0 °F 71% 30.22 in 10.0 mi SE 5.8 mph - N/A   Clear
10:53 PM 46.9 °F - 39.0 °F 74% 30.21 in 10.0 mi SE 6.9 mph - N/A   Clear
11:53 PM 45.0 °F 43.5 °F 37.9 °F 76% 30.21 in 9.0 mi SE 3.5 mph - N/A   Clear